Location: Austin
(30.3000°N, 97.7500°W)
Time: 07:20:23
(UTC-05:00)

H-2A R/B - Pass Details

Date: 16 June 2025
Orbit: 729 x 830 km, 98.3° (Epoch: 07 July)

Event Time Altitude Azimuth Distance (km) Brightness Sun altitude
Rises 05:58:32 0° 354° (N) 3,308 5.7 -6.5°
Reaches altitude 10° 06:01:23 10° 339° (NNW) 2,357 4.7 -6.0°
Maximum altitude 06:05:13 21° 292° (WNW) 1,680 3.5 -5.3°
Drops below altitude 10° 06:08:58 10° 243° (WSW) 2,299 3.8 -4.6°
Enters shadow 06:10:22 - 234° (SW) 2,733 4.2 -4.3°
